Location: Unspecified
(0.0000°N, 0.0000°E)
Time: 05:25:29
(UTC+00:00)

ISS - Pass Details

Date: 16 May 2019
Orbit: 407 x 410 km, 51.6° (Epoch: 23 May)

Event Time Altitude Azimuth Distance (km) Brightness Sun altitude
Rises 19:08:55 0° 228° (SW) 2,323 0.4 -17.1°
Reaches altitude 10° 19:11:05 10° 236° (SW) 1,461 -0.5 -17.6°
Maximum altitude 19:14:09 37° 305° (NW) 648 -2.2 -18.3°
Drops below altitude 10° 19:17:12 10° 15° (NNE) 1,455 -1.0 -19.0°
Sets 19:19:21 0° 23° (NNE) 2,311 0.0 -19.5°
